TimeICT,TemperatureF,Dew PointF,Humidity,Sea Level PressureIn,VisibilityMPH,Wind Direction,Wind SpeedMPH,Gust SpeedMPH,PrecipitationIn,Events,Conditions,WindDirDegrees,DateUTC
12:00 AM,77.0,75.2,94,29.83,6.2,Calm,Calm,-,N/A,,Mostly Cloudy,0,2013-05-16 17:00:00
12:30 AM,77.0,75.2,94,29.83,6.2,Calm,Calm,-,N/A,,Mostly Cloudy,0,2013-05-16 17:30:00
1:00 AM,77,75,90,29.82,6,Calm,Calm,,,,Scattered Clouds,,2013-05-16 18:00:00
1:00 AM,77.0,75.2,94,29.80,6.2,Calm,Calm,-,N/A,,Mostly Cloudy,0,2013-05-16 18:00:00
1:30 AM,77.0,75.2,94,29.80,6.2,Calm,Calm,-,N/A,,Mostly Cloudy,0,2013-05-16 18:30:00
3:30 AM,77.0,75.2,94,29.77,6.2,Calm,Calm,-,N/A,,Mostly Cloudy,0,2013-05-16 20:30:00
4:00 AM,75.2,73.4,94,29.77,6.2,Calm,Calm,-,N/A,,Mostly Cloudy,0,2013-05-16 21:00:00
4:30 AM,75.2,73.4,94,29.77,6.2,Calm,Calm,-,N/A,,Mostly Cloudy,0,2013-05-16 21:30:00
5:00 AM,75.2,73.4,94,29.77,6.2,Calm,Calm,-,N/A,,Mostly Cloudy,0,2013-05-16 22:00:00
5:30 AM,75.2,73.4,94,29.77,6.2,Calm,Calm,-,N/A,,Mostly Cloudy,0,2013-05-16 22:30:00
6:00 AM,73.4,71.6,94,29.77,6.2,Calm,Calm,-,N/A,,Mostly Cloudy,0,2013-05-16 23:00:00
6:30 AM,75.2,73.4,94,29.77,6.2,Calm,Calm,-,N/A,,Mostly Cloudy,0,2013-05-16 23:30:00
7:00 AM,76,74,91,29.81,6,Calm,Calm,,,,Scattered Clouds,,2013-05-17 00:00:00
7:00 AM,77.0,75.2,94,29.80,6.2,Calm,Calm,-,N/A,,Mostly Cloudy,0,2013-05-17 00:00:00
7:30 AM,78.8,77.0,94,29.80,6.2,Calm,Calm,-,N/A,,Mostly Cloudy,0,2013-05-17 00:30:00
8:00 AM,84.2,78.8,84,29.83,6.2,Calm,Calm,-,N/A,,Mostly Cloudy,0,2013-05-17 01:00:00
8:30 AM,84.2,77.0,79,29.83,6.2,Calm,Calm,-,N/A,,Mostly Cloudy,0,2013-05-17 01:30:00
9:00 AM,87.8,77.0,70,29.83,6.2,SW,3.5,-,N/A,,Mostly Cloudy,220,2013-05-17 02:00:00
9:30 AM,87.8,77.0,70,29.83,6.2,SW,4.6,-,N/A,,Mostly Cloudy,220,2013-05-17 02:30:00
10:00 AM,87.8,77.0,70,29.83,6.2,SE,3.5,-,N/A,,Mostly Cloudy,130,2013-05-17 03:00:00
10:30 AM,89.6,75.2,62,29.83,6.2,South,5.8,-,N/A,,Mostly Cloudy,170,2013-05-17 03:30:00
11:00 AM,89.6,75.2,62,29.83,6.2,ESE,4.6,-,N/A,,Mostly Cloudy,110,2013-05-17 04:00:00
11:30 AM,91.4,77.0,63,29.83,6.2,NE,4.6,-,N/A,,Mostly Cloudy,40,2013-05-17 04:30:00
12:00 PM,91.4,75.2,59,29.80,6.2,East,3.5,-,N/A,,Mostly Cloudy,90,2013-05-17 05:00:00
12:30 PM,87.8,73.4,62,29.80,6.2,West,8.1,-,N/A,,Mostly Cloudy,270,2013-05-17 05:30:00
1:00 PM,90,71,44,29.79,6,WSW,9.2,,,,Partly Cloudy,240,2013-05-17 06:00:00
1:00 PM,89.6,71.6,55,29.77,6.2,WSW,9.2,-,N/A,,Mostly Cloudy,240,2013-05-17 06:00:00
1:30 PM,87.8,73.4,62,29.77,6.2,WSW,13.8,-,N/A,,Mostly Cloudy,250,2013-05-17 06:30:00
2:00 PM,87.8,73.4,62,29.77,6.2,SW,15.0,-,N/A,Thunderstorm,Mostly Cloudy,220,2013-05-17 07:00:00
2:30 PM,84.2,73.4,70,29.77,5.6,SW,10.4,-,N/A,Thunderstorm,Mostly Cloudy,220,2013-05-17 07:30:00
3:00 PM,82.4,73.4,74,29.77,5.6,NNE,9.2,-,N/A,Thunderstorm,Thunderstorm,30,2013-05-17 08:00:00
3:30 PM,78.8,75.2,89,29.77,5.6,East,4.6,-,N/A,Rain,Rain,100,2013-05-17 08:30:00
4:00 PM,78.8,75.2,89,29.80,5.0,East,5.8,-,N/A,Rain,Rain,90,2013-05-17 09:00:00
4:30 PM,78.8,75.2,89,29.80,5.0,East,3.5,-,N/A,Rain,Rain,100,2013-05-17 09:30:00
5:00 PM,78.8,75.2,89,29.80,5.0,South,4.6,-,N/A,Rain,Light Rain,180,2013-05-17 10:00:00
5:30 PM,77.0,75.2,94,29.80,5.0,SSW,4.6,-,N/A,Rain,Light Rain,200,2013-05-17 10:30:00
6:00 PM,77.0,75.2,94,29.80,5.0,WSW,2.3,-,N/A,Rain,Light Rain,250,2013-05-17 11:00:00
6:30 PM,77.0,75.2,94,29.80,5.6,South,2.3,-,N/A,Rain,Light Rain,190,2013-05-17 11:30:00
7:00 PM,77,75,90,29.82,6,WSW,2.3,,,Rain,Light Rain,250,2013-05-17 12:00:00
7:00 PM,77.0,75.2,94,29.80,5.6,WSW,2.3,-,N/A,Rain,Light Rain,250,2013-05-17 12:00:00
7:30 PM,77.0,75.2,94,29.83,5.6,Calm,Calm,-,N/A,,Mostly Cloudy,0,2013-05-17 12:30:00
8:00 PM,77.0,75.2,94,29.83,5.6,SSE,3.5,-,N/A,,Mostly Cloudy,160,2013-05-17 13:00:00
8:30 PM,77.0,75.2,94,29.83,5.6,ESE,5.8,-,N/A,,Mostly Cloudy,110,2013-05-17 13:30:00
9:00 PM,77.0,75.2,94,29.83,5.0,SE,3.5,-,N/A,Rain,Light Rain,140,2013-05-17 14:00:00
9:30 PM,77.0,75.2,94,29.86,5.0,ESE,3.5,-,N/A,Rain,Light Rain,120,2013-05-17 14:30:00
10:00 PM,77.0,75.2,94,29.86,5.0,SSE,3.5,-,N/A,Rain,Light Rain,150,2013-05-17 15:00:00
10:30 PM,77.0,75.2,94,29.86,5.0,South,2.3,-,N/A,,Mostly Cloudy,170,2013-05-17 15:30:00
11:00 PM,77.0,75.2,94,29.86,5.0,SE,2.3,-,N/A,,Mostly Cloudy,130,2013-05-17 16:00:00
11:30 PM,77.0,75.2,94,29.83,5.0,SSE,2.3,-,N/A,,Mostly Cloudy,150,2013-05-17 16:30:00